Terminal Aerodrome Forecast
Issued by NWS

Home | Current Version | Previous Version | Text Only | Print | Product List | Glossary On
Versions: 1 2 3 4 5 6 7 8 9 10 11 12 13 14
000
FTUS45 KGGW 312300
TAFGDV
TAF
KGDV 312320Z 0100/0124 14015G25KT P6SM BKN250
     FM010600 15007KT P6SM FEW150
     FM011800 VRB04KT P6SM BKN150
      AMD LTD TO CLD VIS AND WIND=

USA.gov is the U.S. government's official web portal to all federal, state and local government web resources and services.